Tracking 30692 objects as of 16-Jun-2025
HD Live streaming from Space Station
objects crossing your sky now

RADCAL

Track RADCAL now!
10-day predictions
RADCAL is classified as:


NORAD ID: 22698
Int'l Code: 1993-041A
Perigee: 756.7 km
Apogee: 880.9 km
Inclination: 89.5 °
Period: 101.1 minutes
Semi major axis: 7189 km
RCS: 0.589 m2 (medium)
Launch date: June 25, 1993
Source: United States (US)
Launch site: AIR FORCE WESTERN TEST RANGE (AFWTR)

This spacecraft was used to help calibrate radar target cross section data.
Your satellite tracking list
Your tracking list is empty




NASA's NSSDC Master Catalog

Two Line Element Set (TLE):
1 22698U 93041A   25166.69727218  .00000137  00000-0  52507-4 0  9990
2 22698  89.4980  81.4318 0086405 306.3296  52.9941 14.24061404660035
Source of the keplerian elements: AFSPC